| time (UTC) | temp F | wind direction | speed MPH | gust MPH | rain 1hr in | rain 24hr in | rain mn in | humidity % | barometer mb |
| 20260509224527 | 69 | 0 | 0.0 | 1.0 | 0.00 | 0.00 | 0.00 | 81 | 1011.9 |
| 20260509223028 | 69 | 0 | 0.0 | 1.0 | 0.00 | 0.00 | 0.00 | 80 | 1011.8 |
| 20260509221530 | 70 | 0 | 0.0 | 2.0 | 0.00 | 0.00 | 0.00 | 78 | 1011.8 |
| 20260509220029 | 70 | 199 | 0.0 | 2.0 | 0.00 | 0.00 | 0.00 | 76 | 1011.8 |
| 20260509214529 | 70 | 215 | 1.0 | 3.0 | 0.00 | 0.00 | 0.00 | 77 | 1011.9 |
| 20260509213034 | 70 | 0 | 0.0 | 3.0 | 0.00 | 0.00 | 0.00 | 76 | 1011.8 |
| 20260509211528 | 70 | 196 | 0.0 | 3.0 | 0.00 | 0.00 | 0.00 | 75 | 1011.6 |
| 20260509210033 | 70 | 173 | 1.0 | 4.0 | 0.00 | 0.00 | 0.00 | 74 | 1011.7 |
| 20260509204527 | 70 | 194 | 1.0 | 3.0 | 0.00 | 0.00 | 0.00 | 75 | 1011.6 |
| 20260509203028 | 70 | 180 | 1.0 | 3.0 | 0.00 | 0.00 | 0.00 | 73 | 1011.5 |
| 20260509201528 | 70 | 56 | 0.0 | 3.0 | 0.00 | 0.00 | 0.00 | 74 | 1011.5 |
| 20260509200030 | 70 | 214 | 0.0 | 2.0 | 0.00 | 0.00 | 0.00 | 74 | 1011.5 |
| 20260509194540 | 70 | 0 | 0.0 | 4.0 | 0.00 | 0.00 | 0.00 | 74 | 1011.6 |
| 20260509193033 | 70 | 91 | 1.0 | 4.0 | 0.00 | 0.00 | 0.00 | 72 | 1012.0 |
| 20260509191527 | 70 | 0 | 0.0 | 5.0 | 0.00 | 0.00 | 0.00 | 72 | 1012.0 |
| 20260509190028 | 70 | 80 | 0.0 | 5.0 | 0.00 | 0.00 | 0.00 | 74 | 1012.0 |
| 20260509184528 | 69 | 181 | 2.0 | 5.0 | 0.00 | 0.00 | 0.00 | 76 | 1012.2 |
| 20260509183028 | 69 | 0 | 2.0 | 5.0 | 0.00 | 0.00 | 0.00 | 76 | 1012.3 |
| 20260509181529 | 69 | 200 | 2.0 | 7.0 | 0.00 | 0.00 | 0.00 | 78 | 1012.5 |
| 20260509180030 | 68 | 192 | 2.0 | 9.0 | 0.00 | 0.00 | 0.00 | 79 | 1013.0 |
| 20260509174528 | 68 | 0 | 1.0 | 6.0 | 0.00 | 0.00 | 0.00 | 80 | 1012.7 |
| 20260509173032 | 67 | 193 | 1.0 | 5.0 | 0.00 | 0.00 | 0.00 | 82 | 1012.7 |
| 20260509171536 | 67 | 190 | 2.0 | 9.0 | 0.00 | 0.00 | 0.00 | 84 | 1012.7 |
| 20260509170028 | 67 | 182 | 0.0 | 5.0 | 0.00 | 0.00 | 0.00 | 85 | 1012.7 |
| 20260509164528 | 67 | 235 | 0.0 | 6.0 | 0.00 | 0.00 | 0.00 | 85 | 1012.5 |
| 20260509163034 | 67 | 0 | 1.0 | 9.0 | 0.00 | 0.00 | 0.00 | 85 | 1012.5 |
| 20260509161528 | 67 | 194 | 1.0 | 4.0 | 0.00 | 0.00 | 0.00 | 86 | 1012.9 |
| 20260509160031 | 67 | 197 | 1.0 | 6.0 | 0.00 | 0.00 | 0.00 | 86 | 1012.5 |
| 20260509154529 | 67 | 178 | 0.0 | 4.0 | 0.00 | 0.00 | 0.00 | 87 | 1012.3 |
| 20260509153046 | 66 | 136 | 1.0 | 6.0 | 0.00 | 0.00 | 0.00 | 88 | 1012.2 |
| 20260509151528 | 65 | 201 | 2.0 | 8.0 | 0.00 | 0.00 | 0.00 | 90 | 1012.5 |
| 20260509150030 | 64 | 207 | 1.0 | 4.0 | 0.00 | 0.00 | 0.00 | 91 | 1012.7 |
| 20260509144532 | 63 | 205 | 1.0 | 4.0 | 0.00 | 0.00 | 0.00 | 92 | 1012.8 |
| 20260509143028 | 63 | 0 | 1.0 | 6.0 | 0.00 | 0.00 | 0.00 | 92 | 1012.8 |
| 20260509141535 | 62 | 192 | 1.0 | 4.0 | 0.00 | 0.00 | 0.00 | 93 | 1012.8 |
| 20260509140026 | 62 | 186 | 2.0 | 6.0 | 0.00 | 0.00 | 0.00 | 94 | 1013.1 |
| 20260509134528 | 61 | 205 | 0.0 | 5.0 | 0.00 | 0.00 | 0.00 | 94 | 1013.0 |
| 20260509133030 | 61 | 202 | 1.0 | 4.0 | 0.00 | 0.00 | 0.00 | 94 | 1012.5 |
| 20260509131530 | 60 | 0 | 0.0 | 3.0 | 0.00 | 0.00 | 0.00 | 95 | 1012.5 |
| 20260509130030 | 60 | 191 | 0.0 | 3.0 | 0.00 | 0.00 | 0.00 | 95 | 1012.4 |
| 20260509124531 | 59 | 205 | 1.0 | 4.0 | 0.00 | 0.00 | 0.00 | 95 | 1012.7 |
| 20260509123030 | 59 | 176 | 0.0 | 3.0 | 0.00 | 0.00 | 0.00 | 96 | 1012.8 |
| 20260509121530 | 59 | 229 | 0.0 | 1.0 | 0.00 | 0.00 | 0.00 | 96 | 1012.7 |
| 20260509120030 | 58 | 0 | 0.0 | 1.0 | 0.00 | 0.00 | 0.00 | 97 | 1012.0 |
| 20260509114535 | 58 | 0 | 0.0 | 1.0 | 0.00 | 0.00 | 0.00 | 97 | 1012.0 |
| 20260509113029 | 57 | 0 | 0.0 | 0.0 | 0.00 | 0.00 | 0.00 | 97 | 1012.1 |
| 20260509111530 | 57 | 0 | 0.0 | 1.0 | 0.00 | 0.00 | 0.00 | 96 | 1012.0 |
| 20260509110028 | 57 | 0 | 0.0 | 0.0 | 0.00 | 0.00 | 0.00 | 96 | 1012.1 |
| 20260509104530 | 57 | 0 | 0.0 | 0.0 | 0.00 | 0.00 | 0.00 | 96 | 1012.1 |
| 20260509103027 | 57 | 0 | 0.0 | 0.0 | 0.00 | 0.00 | 0.00 | 96 | 1012.2 |
| 20260509101530 | 57 | 0 | 0.0 | 0.0 | 0.00 | 0.00 | 0.00 | 96 | 1012.4 |
| 20260509100029 | 57 | 0 | 0.0 | 0.0 | 0.00 | 0.00 | 0.00 | 96 | 1012.5 |
| 20260509094534 | 57 | 0 | 0.0 | 1.0 | 0.00 | 0.00 | 0.00 | 96 | 1012.3 |
| 20260509093029 | 57 | 0 | 0.0 | 0.0 | 0.00 | 0.00 | 0.00 | 96 | 1012.3 |
| 20260509091530 | 57 | 0 | 0.0 | 0.0 | 0.00 | 0.00 | 0.00 | 96 | 1012.1 |
| 20260509090036 | 57 | 0 | 0.0 | 0.0 | 0.00 | 0.00 | 0.00 | 95 | 1012.0 |
| 20260509084529 | 57 | 0 | 0.0 | 0.0 | 0.00 | 0.00 | 0.00 | 96 | 1011.8 |
| 20260509083030 | 57 | 0 | 0.0 | 0.0 | 0.00 | 0.00 | 0.00 | 96 | 1011.7 |
| 20260509081531 | 57 | 0 | 0.0 | 0.0 | 0.00 | 0.00 | 0.00 | 95 | 1011.8 |
| 20260509080029 | 57 | 0 | 0.0 | 0.0 | 0.00 | 0.00 | 0.00 | 96 | 1011.6 |
| 20260509074528 | 57 | 0 | 0.0 | 0.0 | 0.00 | 0.00 | 0.00 | 95 | 1011.4 |
| 20260509073035 | 57 | 0 | 0.0 | 0.0 | 0.00 | 0.00 | 0.00 | 95 | 1011.5 |
| 20260509071528 | 57 | 0 | 0.0 | 0.0 | 0.00 | 0.00 | 0.00 | 95 | 1011.9 |
| 20260509070028 | 58 | 0 | 0.0 | 0.0 | 0.00 | 0.00 | 0.00 | 95 | 1012.2 |
| 20260509064529 | 58 | 0 | 0.0 | 1.0 | 0.00 | 0.00 | 0.00 | 95 | 1012.2 |
| 20260509063036 | 58 | 0 | 0.0 | 0.0 | 0.00 | 0.00 | 0.00 | 95 | 1012.7 |
| 20260509061529 | 58 | 0 | 0.0 | 0.0 | 0.00 | 0.00 | 0.00 | 95 | 1012.8 |
| 20260509060029 | 58 | 0 | 0.0 | 0.0 | 0.00 | 0.00 | 0.00 | 94 | 1012.8 |
| 20260509054527 | 58 | 0 | 0.0 | 0.0 | 0.00 | 0.00 | 0.00 | 94 | 1012.8 |
| 20260509053047 | 59 | 0 | 0.0 | 1.0 | 0.00 | 0.00 | 0.00 | 94 | 1013.1 |
| 20260509051529 | 59 | 0 | 0.0 | 0.0 | 0.00 | 0.00 | 0.00 | 94 | 1013.2 |
| 20260509050028 | 59 | 0 | 0.0 | 0.0 | 0.00 | 0.00 | 0.00 | 94 | 1013.5 |
| 20260509044528 | 59 | 0 | 0.0 | 0.0 | 0.00 | 0.00 | 0.00 | 93 | 1013.6 |
| 20260509043040 | 59 | 0 | 0.0 | 0.0 | 0.00 | 0.00 | 0.00 | 93 | 1013.5 |
| 20260509041528 | 59 | 0 | 0.0 | 0.0 | 0.00 | 0.00 | 0.00 | 93 | 1013.6 |
| 20260509040034 | 59 | 0 | 0.0 | 0.0 | 0.00 | 0.00 | 0.00 | 93 | 1013.7 |
| 20260509034528 | 60 | 0 | 0.0 | 0.0 | 0.00 | 0.00 | 0.00 | 92 | 1013.6 |
| 20260509033027 | 60 | 0 | 0.0 | 0.0 | 0.00 | 0.00 | 0.00 | 92 | 1013.7 |
| 20260509031531 | 60 | 0 | 0.0 | 0.0 | 0.00 | 0.00 | 0.00 | 92 | 1013.9 |
| 20260509030028 | 60 | 0 | 0.0 | 0.0 | 0.00 | 0.00 | 0.00 | 91 | 1013.8 |
| 20260509024527 | 61 | 0 | 0.0 | 0.0 | 0.00 | 0.00 | 0.00 | 91 | 1013.9 |
| 20260509023028 | 61 | 0 | 0.0 | 0.0 | 0.00 | 0.00 | 0.00 | 90 | 1014.1 |
| 20260509021530 | 61 | 0 | 0.0 | 0.0 | 0.00 | 0.00 | 0.00 | 90 | 1014.1 |
| 20260509020026 | 61 | 0 | 0.0 | 0.0 | 0.00 | 0.00 | 0.00 | 89 | 1014.2 |
| 20260509014528 | 61 | 0 | 0.0 | 0.0 | 0.00 | 0.00 | 0.00 | 88 | 1014.2 |
| 20260509013031 | 62 | 0 | 0.0 | 0.0 | 0.00 | 0.00 | 0.00 | 88 | 1014.1 |
| 20260509011530 | 62 | 0 | 0.0 | 0.0 | 0.00 | 0.00 | 0.00 | 87 | 1014.2 |
| 20260509010034 | 62 | 0 | 0.0 | 0.0 | 0.00 | 0.00 | 0.00 | 86 | 1014.3 |
| 20260509004530 | 63 | 0 | 0.0 | 1.0 | 0.00 | 0.00 | 0.00 | 85 | 1014.3 |
| 20260509003034 | 63 | 0 | 0.0 | 0.0 | 0.00 | 0.00 | 0.00 | 84 | 1014.3 |
| 20260509001531 | 64 | 0 | 0.0 | 1.0 | 0.00 | 0.00 | 0.00 | 84 | 1014.3 |
| 20260509000030 | 64 | 0 | 0.0 | 0.0 | 0.00 | 0.00 | 0.00 | 81 | 1014.2 |
| 20260508234530 | 65 | 0 | 0.0 | 0.0 | 0.00 | 0.00 | 0.00 | 80 | 1014.2 |
| 20260508233034 | 65 | 0 | 0.0 | 2.0 | 0.00 | 0.00 | 0.00 | 79 | 1014.2 |
| 20260508231530 | 65 | 0 | 0.0 | 0.0 | 0.00 | 0.00 | 0.00 | 77 | 1013.9 |
| 20260508230028 | 66 | 0 | 0.0 | 0.0 | 0.00 | 0.00 | 0.00 | 77 | 1013.7 |